Inquirer Daily News

Weather

Get conditions and forecasts for any City, State, ZIP code or Country:  
Northeast Philadelphia, PA
on Thursday, December 27, 2012

Thursday
Previous Day Next Day
Daily Summary
 ActualAverage (KTTN)Record (KTTN)
Temperature
Mean Temperature °F 32°F  
Max Temperature 41°F 40°F 63°F (1949)
Min Temperature 34°F 24°F 3°F (1989)
Degree Days
Heating Degree Days 28 33  
Month to date heating degree days 787  
Since 1 July heating degree days 1763  
Cooling Degree Days 0 0  
Month to date cooling degree days 0  
Year to date cooling degree days 965  
Moisture
Dew Point 30°F   
Average Humidity 76    
Maximum Humidity 93    
Minimum Humidity 57    
Precipitation
Precipitation 0.03 in 0.09 in 1.82 in (1894)
Month to date precipitation 3.37  
Year to date precipitation 46.11  
Wind
Wind Speed 17 mph   
Max Wind Speed 24 mph   
Max Gust Speed 37 mph   
Visibility 9 miles   
Events Rain   

Key: T is trace of precipitation, MM is missing value
Source: NWS Daily Summary
Time(EST)TemperatureDew PointHumidity Pressure Visibility Wind DirectionWind SpeedGust SpeedPrecipitationEvents Conditions
12:54 AM 39.9°F 37.0°F 89% 29.33 in 10.0 miles NE 19.6 mph 32.2 mph 0.00 in Rain Light Rain
1:54 AM 41.0°F 37.0°F 86% 29.33 in 10.0 miles NE 21.9 mph 28.8 mph 0.00 in   Overcast
2:54 AM 41.0°F 37.9°F 89% 29.32 in 10.0 miles NNE 15.0 mph 26.5 mph N/A   Overcast
3:54 AM 41.0°F 37.9°F 89% 29.31 in 9.0 miles NNE 13.8 mph 25.3 mph 0.00 in   Overcast
4:54 AM 41.0°F 37.9°F 89% 29.34 in 10.0 miles West 12.7 mph - N/A   Overcast
5:54 AM 39.9°F 37.9°F 93% 29.37 in 4.0 miles NNW 11.5 mph - 0.01 in Rain Light Rain
6:04 AM 37.4°F 35.6°F 93% 29.38 in 6.0 miles NW 13.8 mph - 0.01 in Rain Light Rain
6:13 AM 37.4°F 35.6°F 93% 29.38 in 4.0 miles NW 15.0 mph 24.2 mph 0.01 in Rain Light Rain
6:17 AM 37.4°F 33.8°F 87% 29.38 in 4.0 miles NW 12.7 mph 24.2 mph 0.01 in Rain Light Rain
6:25 AM 37.4°F 33.8°F 87% 29.39 in 6.0 miles NW 15.0 mph 21.9 mph 0.01 in Rain Light Rain
6:40 AM 37.4°F 33.8°F 87% 29.39 in 8.0 miles NW 13.8 mph 26.5 mph 0.01 in Rain Light Rain
6:54 AM 37.0°F 34.0°F 89% 29.41 in 6.0 miles NW 15.0 mph 26.5 mph 0.01 in Rain Light Rain
7:30 AM 37.4°F 33.8°F 87% 29.42 in 10.0 miles NW 18.4 mph 26.5 mph 0.00 in   Overcast
7:54 AM 37.9°F 35.1°F 89% 29.44 in 5.0 miles NW 16.1 mph 23.0 mph 0.00 in   Overcast
8:54 AM 36.0°F 33.1°F 89% 29.50 in 7.0 miles NW 15.0 mph 25.3 mph 0.00 in Rain Light Rain
9:02 AM 35.6°F 33.8°F 93% 29.50 in 7.0 miles NW 18.4 mph 26.5 mph 0.01 in Rain Light Rain
9:54 AM 36.0°F 30.9°F 82% 29.55 in 10.0 miles WNW 16.1 mph 24.2 mph 0.01 in   Overcast
10:54 AM 37.9°F 30.0°F 73% 29.57 in 10.0 miles WNW 16.1 mph 26.5 mph N/A   Overcast
11:21 AM 37.4°F 28.4°F 70% 29.59 in 10.0 miles WNW 23.0 mph 28.8 mph N/A   Overcast
11:34 AM 37.4°F 28.4°F 70% 29.59 in 10.0 miles WNW 17.3 mph 28.8 mph N/A   Overcast
11:43 AM 37.4°F 28.4°F 70% 29.59 in 10.0 miles WNW 24.2 mph 31.1 mph N/A   Overcast
11:54 AM 36.0°F 27.0°F 70% 29.60 in 10.0 miles WNW 15.0 mph 36.8 mph N/A   Overcast
12:36 PM 35.6°F 26.6°F 70% 29.61 in 10.0 miles WNW 21.9 mph 35.7 mph N/A   Overcast
12:54 PM 36.0°F 26.1°F 67% 29.62 in 10.0 miles WNW 19.6 mph 29.9 mph N/A   Overcast
1:54 PM 36.0°F 25.0°F 64% 29.64 in 10.0 miles NW 13.8 mph 31.1 mph N/A   Overcast
2:54 PM 36.0°F 25.0°F 64% 29.67 in 10.0 miles NW 17.3 mph 32.2 mph N/A   Overcast
3:54 PM 36.0°F 24.1°F 62% 29.70 in 10.0 miles WNW 19.6 mph 28.8 mph N/A   Overcast
4:54 PM 36.0°F 23.0°F 59% 29.74 in 10.0 miles WNW 21.9 mph 31.1 mph N/A   Overcast
5:54 PM 35.1°F 23.0°F 61% 29.79 in 10.0 miles WNW 17.3 mph 25.3 mph N/A   Overcast
6:54 PM 35.1°F 21.0°F 57% 29.83 in 10.0 miles NW 24.2 mph 33.4 mph N/A   Overcast
7:54 PM 34.0°F 21.0°F 59% 29.85 in 10.0 miles WNW 10.4 mph 23.0 mph N/A   Overcast
8:54 PM 34.0°F 21.0°F 59% 29.88 in 10.0 miles NW 10.4 mph - N/A   Overcast
9:54 PM 34.0°F 21.0°F 59% 29.91 in 10.0 miles NW 13.8 mph 20.7 mph N/A   Overcast
10:54 PM 34.0°F 21.9°F 61% 29.93 in 10.0 miles NW 11.5 mph 23.0 mph N/A   Overcast
11:54 PM 34.0°F 21.9°F 61% 29.93 in 10.0 miles NW 11.5 mph 25.3 mph N/A   Overcast
Astronomy
Sunrise:07:21 AM (EST) Moon Rise:04:22 PM (EST)12/27
Sunset:04:41 PM (EST) Moon Set:06:30 AM (EST)12/27
Moon Phase
Dec. 27 Dec. 28 Jan. 04 Jan. 11 Jan. 18

Copyright © 2014 The Weather Underground, Inc.